TimeEST,TemperatureF,Dew PointF,Humidity,Sea Level PressureIn,VisibilityMPH,Wind Direction,Wind SpeedMPH,Gust SpeedMPH,PrecipitationIn,Events,Conditions,WindDirDegrees,DateUTC
12:33 AM,57.2,55.4,94,30.08,1.5,Calm,Calm,-,N/A,,Mostly Cloudy,0,2012-12-09 05:33:00
12:50 AM,57.2,55.4,94,30.08,3.0,WNW,3.5,-,N/A,,Mostly Cloudy,290,2012-12-09 05:50:00
12:53 AM,57.0,55.0,93,30.07,4.0,Calm,Calm,-,N/A,,Mostly Cloudy,0,2012-12-09 05:53:00
1:53 AM,57.0,55.0,93,30.06,4.0,WNW,4.6,-,N/A,,Overcast,290,2012-12-09 06:53:00
2:53 AM,57.0,55.0,93,30.06,4.0,Calm,Calm,-,N/A,,Overcast,0,2012-12-09 07:53:00
3:22 AM,57.2,55.4,94,30.07,2.5,Calm,Calm,-,N/A,,Mostly Cloudy,0,2012-12-09 08:22:00
3:37 AM,55.4,55.4,100,30.07,1.0,Calm,Calm,-,N/A,,Overcast,0,2012-12-09 08:37:00
3:44 AM,55.4,55.4,100,30.07,0.5,Calm,Calm,-,N/A,Fog,Fog,0,2012-12-09 08:44:00
3:53 AM,55.9,55.0,97,30.06,1.0,Calm,Calm,-,N/A,,Overcast,0,2012-12-09 08:53:00
4:10 AM,55.4,55.4,100,30.07,2.5,Calm,Calm,-,N/A,,Overcast,0,2012-12-09 09:10:00
4:25 AM,55.4,55.4,100,30.07,3.0,Calm,Calm,-,N/A,,Overcast,0,2012-12-09 09:25:00
4:53 AM,57.0,55.0,93,30.06,3.0,Calm,Calm,-,N/A,,Overcast,0,2012-12-09 09:53:00
5:04 AM,57.2,55.4,94,30.07,4.0,Calm,Calm,-,N/A,,Overcast,0,2012-12-09 10:04:00
5:34 AM,57.2,55.4,94,30.07,3.0,Calm,Calm,-,N/A,,Overcast,0,2012-12-09 10:34:00
5:44 AM,55.4,55.4,100,30.07,2.5,Calm,Calm,-,N/A,,Mostly Cloudy,0,2012-12-09 10:44:00
5:53 AM,55.9,54.0,93,30.07,2.5,South,4.6,-,N/A,,Mostly Cloudy,170,2012-12-09 10:53:00
6:38 AM,55.4,53.6,94,30.09,2.5,Calm,Calm,-,N/A,,Mostly Cloudy,0,2012-12-09 11:38:00
6:49 AM,55.4,53.6,94,30.10,4.0,SSE,4.6,-,N/A,,Overcast,150,2012-12-09 11:49:00
6:53 AM,55.0,54.0,96,30.09,4.0,South,3.5,-,N/A,,Overcast,170,2012-12-09 11:53:00
7:27 AM,55.4,53.6,94,30.10,4.0,Calm,Calm,-,N/A,,Mostly Cloudy,0,2012-12-09 12:27:00
7:38 AM,55.4,53.6,94,30.10,2.5,Calm,Calm,-,N/A,,Overcast,0,2012-12-09 12:38:00
7:50 AM,55.4,53.6,94,30.10,4.0,SE,3.5,-,N/A,,Overcast,130,2012-12-09 12:50:00
7:53 AM,55.9,54.0,93,30.10,4.0,SSE,4.6,-,N/A,,Mostly Cloudy,150,2012-12-09 12:53:00
8:28 AM,57.2,55.4,94,30.11,4.0,Calm,Calm,-,N/A,,Mostly Cloudy,0,2012-12-09 13:28:00
8:53 AM,57.0,55.0,93,30.11,5.0,SSW,3.5,-,N/A,,Overcast,200,2012-12-09 13:53:00
9:11 AM,59.0,55.4,88,30.11,5.0,Calm,Calm,-,N/A,,Mostly Cloudy,0,2012-12-09 14:11:00
9:53 AM,60.1,55.9,86,30.11,7.0,WSW,4.6,-,N/A,,Mostly Cloudy,240,2012-12-09 14:53:00
10:01 AM,60.8,57.2,88,30.12,7.0,WSW,4.6,-,N/A,,Mostly Cloudy,250,2012-12-09 15:01:00
10:53 AM,63.0,55.9,78,30.11,10.0,SW,5.8,-,N/A,,Scattered Clouds,230,2012-12-09 15:53:00
11:11 AM,62.6,55.4,77,30.12,10.0,SW,4.6,-,N/A,,Mostly Cloudy,230,2012-12-09 16:11:00
11:53 AM,63.0,57.0,81,30.09,9.0,Calm,Calm,-,N/A,,Overcast,0,2012-12-09 16:53:00
12:04 PM,64.4,57.2,77,30.09,9.0,West,4.6,-,N/A,,Overcast,280,2012-12-09 17:04:00
12:25 PM,64.4,57.2,77,30.08,9.0,WSW,5.8,-,N/A,,Mostly Cloudy,240,2012-12-09 17:25:00
12:53 PM,64.9,57.0,75,30.06,10.0,West,4.6,-,N/A,,Mostly Cloudy,270,2012-12-09 17:53:00
1:44 PM,66.2,57.2,73,30.06,10.0,WSW,6.9,-,N/A,,Overcast,250,2012-12-09 18:44:00
1:53 PM,66.9,57.0,70,30.05,10.0,SW,8.1,-,N/A,,Overcast,230,2012-12-09 18:53:00
2:16 PM,66.2,57.2,73,30.05,10.0,WSW,8.1,-,N/A,,Overcast,250,2012-12-09 19:16:00
2:26 PM,66.2,57.2,73,30.05,10.0,SW,6.9,-,N/A,,Mostly Cloudy,230,2012-12-09 19:26:00
2:53 PM,66.9,55.9,68,30.04,10.0,West,6.9,-,N/A,,Mostly Cloudy,260,2012-12-09 19:53:00
3:15 PM,66.2,57.2,73,30.05,10.0,West,5.8,-,N/A,,Mostly Cloudy,260,2012-12-09 20:15:00
3:53 PM,66.9,55.9,68,30.04,10.0,SW,6.9,-,N/A,,Mostly Cloudy,230,2012-12-09 20:53:00
4:08 PM,66.2,55.4,68,30.05,10.0,WSW,6.9,-,N/A,,Scattered Clouds,250,2012-12-09 21:08:00
5:53 PM,64.0,55.9,75,30.04,10.0,SW,3.5,-,N/A,,Partly Cloudy,220,2012-12-09 22:53:00
6:50 PM,60.8,55.4,82,30.05,10.0,Calm,Calm,-,N/A,,Mostly Cloudy,0,2012-12-09 23:50:00
6:53 PM,61.0,55.9,83,30.05,10.0,Calm,Calm,-,N/A,,Mostly Cloudy,0,2012-12-09 23:53:00
7:53 PM,61.0,55.9,83,30.04,10.0,Calm,Calm,-,N/A,,Scattered Clouds,0,2012-12-10 00:53:00
8:16 PM,59.0,55.4,88,30.04,10.0,SSE,4.6,-,N/A,,Partly Cloudy,160,2012-12-10 01:16:00
8:53 PM,59.0,57.0,93,30.03,7.0,South,3.5,-,N/A,,Scattered Clouds,170,2012-12-10 01:53:00
9:02 PM,59.0,57.2,94,30.03,6.0,Calm,Calm,-,N/A,,Mostly Cloudy,0,2012-12-10 02:02:00
9:53 PM,59.0,57.0,93,30.01,4.0,South,4.6,-,N/A,,Overcast,170,2012-12-10 02:53:00
10:17 PM,59.0,57.2,94,30.01,2.0,South,3.5,-,N/A,,Overcast,180,2012-12-10 03:17:00
10:35 PM,59.0,57.2,94,30.02,4.0,SW,3.5,-,N/A,,Overcast,230,2012-12-10 03:35:00
10:53 PM,59.0,57.0,93,30.01,3.0,WSW,3.5,-,N/A,,Overcast,250,2012-12-10 03:53:00
11:53 PM,59.0,57.0,93,30.00,6.0,WSW,3.5,-,N/A,,Overcast,240,2012-12-10 04:53:00